Wind_Speed
24 24 25 26 27 27 28 28 28 29 29 29 29 29 29 29 29 29 29 29 29 30 30 30 29 29 28 27 27 26 26 25 24 24 24 24 24 24 24 24 23 23 23 23 23 23 22 22 22 21 20 19 19 18 18 18 19 19 20 21 21 22 22 23 23 23 23 23 23
25 25 26 27 28 28 29 29 29 29 29 29 29 28 29 29 29 29 29 30 30 30 30 30 29 28 27 27 26 25 25 24 24 24 23 23 23 22 22 22 22 21 21 21 21 21 20 20 19 18 17 17 17 18 18 19 19 20 20 21 22 23 23 23 24 24 24 24 24
26 27 27 28 29 29 29 29 29 29 29 29 29 29 29 29 29 30 30 30 30 30 30 29 28 27 26 26 26 25 24 24 23 23 22 22 21 21 21 20 20 19 19 19 18 18 17 17 16 16 16 17 17 18 18 19 19 20 21 22 22 23 23 24 24 24 25 25 25
27 28 28 29 29 29 29 29 29 29 28 28 29 29 29 30 30 31 31 31 31 30 29 28 27 26 25 25 24 24 24 23 22 22 21 21 21 20 20 20 19 19 18 17 17 16 16 16 16 16 16 17 18 18 19 19 20 20 21 21 22 23 23 24 24 25 25 26 26
28 28 29 29 29 29 29 28 28 28 29 29 29 30 31 31 31 32 31 31 30 28 27 26 25 24 24 23 22 22 21 21 21 20 20 20 20 20 20 19 19 18 18 17 17 16 16 16 16 16 16 17 18 19 19 20 20 21 21 22 22 23 23 24 24 25 26 26 27
28 29 29 29 29 29 28 28 28 29 29 30 30 31 32 32 32 32 31 30 29 27 26 24 23 22 21 20 20 19 19 19 19 19 19 19 19 19 19 19 19 18 18 17 17 17 16 17 17 17 17 17 18 18 19 20 20 21 21 21 22 22 23 24 24 25 26 26 27
28 28 29 29 28 28 28 28 29 29 30 30 31 32 32 33 32 32 31 29 28 26 24 22 20 19 18 18 18 18 18 18 18 18 18 18 18 18 18 18 18 18 17 17 17 17 17 17 17 18 18 18 18 18 19 19 19 20 20 20 21 22 22 23 24 24 25 26 26
28 28 28 28 28 28 28 28 29 29 30 31 32 32 33 33 32 31 30 28 26 24 21 20 18 17 16 16 16 17 17 17 17 17 17 17 17 17 17 17 17 16 16 16 17 17 17 18 18 18 19 19 19 18 18 18 19 19 19 20 20 21 22 22 23 24 25 26 27
28 28 28 28 28 28 28 28 29 30 31 31 32 32 32 32 31 30 29 27 24 22 19 18 16 15 15 15 16 16 16 16 17 16 16 16 16 16 16 16 16 15 15 15 16 17 18 18 19 19 19 19 19 18 18 18 18 18 19 19 20 21 22 23 23 24 25 26 27
28 28 28 28 28 28 28 29 29 30 31 32 32 32 32 32 30 29 27 25 23 20 18 16 15 15 15 15 16 16 16 16 16 16 15 15 15 15 15 15 15 14 14 14 15 16 17 18 19 19 19 19 19 18 18 18 18 19 19 21 22 22 23 24 24 25 26 27 28
28 28 28 27 28 28 28 29 30 31 32 32 32 32 32 31 30 28 26 24 21 19 17 16 15 15 15 15 16 16 16 16 15 15 15 15 15 15 15 15 15 14 14 14 15 15 16 17 18 19 19 19 19 18 18 19 19 20 21 22 23 24 24 25 25 26 27 27 28
28 28 27 27 28 28 29 30 30 31 32 32 32 32 31 30 28 27 25 22 20 18 16 16 15 16 16 16 16 15 15 15 15 15 15 14 14 14 15 15 15 15 15 15 15 15 16 16 17 18 18 18 18 19 19 20 21 21 22 23 24 24 25 25 26 26 27 28 28
28 28 28 28 28 29 29 30 31 32 32 32 32 31 30 29 27 25 23 21 19 17 16 16 15 16 16 16 16 15 15 15 15 15 15 15 15 15 15 15 15 15 15 15 15 15 16 16 16 17 17 17 18 19 19 20 21 22 22 23 23 24 24 24 25 25 26 26 27
28 28 28 28 29 29 30 31 31 32 32 32 31 30 29 27 26 24 22 20 18 17 16 16 16 15 15 15 16 15 15 15 15 15 15 15 16 16 16 16 16 15 15 15 15 15 15 15 16 16 16 17 17 18 19 20 21 21 21 22 22 23 23 23 23 23 24 25 26
28 29 29 29 29 30 30 31 31 31 31 31 30 28 27 26 24 22 21 19 18 17 17 17 16 16 15 15 15 15 15 15 15 15 16 16 16 17 17 17 16 15 15 14 14 14 14 15 16 16 16 16 17 18 19 20 21 21 22 22 23 23 23 23 22 22 23 24 25
29 29 29 29 30 30 30 31 31 31 30 29 28 27 25 24 23 21 20 18 18 17 17 17 17 16 16 15 15 15 15 15 15 15 16 17 17 17 17 17 16 15 14 14 14 13 14 14 15 16 16 17 18 19 20 21 22 22 23 23 23 23 23 22 22 22 23 24 24
30 30 30 30 30 30 30 30 30 30 29 28 26 25 24 23 22 20 19 18 18 18 17 17 17 17 16 16 15 15 15 15 16 16 17 17 18 18 18 17 16 16 15 15 14 14 15 15 16 16 17 19 20 21 22 23 23 23 24 24 24 23 22 22 22 22 23 23 24
31 30 30 30 30 30 30 30 30 29 28 27 25 24 23 22 21 20 19 18 17 18 18 18 17 17 17 16 16 16 16 16 17 17 18 18 19 19 18 18 17 17 17 16 16 16 17 17 18 19 20 21 22 23 23 23 23 23 23 23 22 21 21 22 22 23 23 23 24
31 31 30 30 30 30 30 30 30 29 27 26 24 23 22 22 21 19 18 18 17 18 18 18 18 18 17 17 18 18 18 18 18 19 19 19 19 19 18 18 18 18 18 18 18 19 19 20 21 21 22 23 23 24 24 23 23 23 22 21 21 20 21 21 22 22 23 23 24
31 31 30 29 29 29 29 29 29 28 27 25 24 23 22 21 20 19 18 18 17 17 18 18 18 18 19 19 19 19 20 20 20 20 19 19 19 19 18 18 18 18 19 19 20 20 21 22 23 23 24 24 25 24 24 24 23 22 21 21 20 20 20 21 21 22 23 23 24
31 30 29 29 29 29 29 29 29 28 26 25 24 23 22 21 20 19 18 17 17 17 17 18 18 19 20 21 21 21 21 21 20 20 19 19 19 19 19 19 19 19 20 20 21 22 22 23 24 25 25 25 25 25 24 24 23 22 22 21 21 20 20 20 21 22 23 23 24
30 30 29 28 28 28 29 29 28 27 26 25 24 23 22 21 19 18 17 17 17 17 17 18 18 19 20 21 22 22 21 20 20 19 19 19 19 19 20 20 20 20 21 21 22 23 24 24 25 25 25 25 25 24 24 23 23 22 22 21 21 20 20 20 21 22 23 24 24
30 29 28 28 28 28 28 29 28 27 26 25 24 23 22 21 19 18 17 16 16 17 17 17 18 18 19 20 21 21 20 19 19 18 18 19 19 20 20 20 20 21 21 22 23 24 24 25 25 25 25 25 24 24 23 23 23 22 22 21 21 20 20 20 21 22 23 24 25
30 29 28 28 28 28 28 29 29 28 26 25 24 23 22 20 19 17 16 16 16 17 17 17 17 17 18 19 19 19 19 18 18 18 18 19 19 20 20 20 21 21 22 23 23 24 25 25 26 26 25 25 24 24 23 23 23 22 22 21 21 20 20 20 21 22 24 25 26
30 29 28 28 28 28 29 29 29 28 27 25 24 22 21 20 19 17 17 17 17 17 17 17 17 17 17 17 17 17 17 17 18 18 19 19 19 20 20 21 21 22 23 23 24 25 25 26 26 26 25 25 24 24 24 24 24 23 22 21 21 21 21 21 22 22 23 24 25
30 29 28 28 28 28 29 29 29 28 27 25 23 22 21 20 18 18 17 17 18 18 18 17 17 16 15 15 15 15 16 17 18 19 19 19 20 20 21 21 22 23 23 24 25 25 25 26 26 26 26 25 25 25 25 25 24 24 23 22 21 21 22 22 23 23 24 24 25
30 29 28 28 28 28 29 30 30 29 27 25 23 22 21 20 19 18 18 18 18 18 18 17 16 15 14 14 14 15 16 17 18 19 19 20 20 21 21 22 23 23 24 25 25 26 26 26 26 26 25 25 25 25 25 25 25 25 24 23 22 22 22 23 24 24 25 25 26
29 29 28 28 28 28 29 30 30 28 26 24 22 21 20 19 19 19 19 19 18 18 18 17 16 15 14 14 14 15 16 17 18 19 19 20 20 21 22 22 23 24 24 25 26 26 27 27 27 26 25 25 25 25 26 26 26 25 24 23 23 23 23 24 25 26 27 28 28
29 29 28 28 28 28 29 30 29 28 26 23 22 21 20 19 19 19 19 19 18 18 18 17 16 15 15 15 16 16 17 17 18 18 18 19 20 21 22 22 23 24 25 25 26 27 27 27 27 26 26 25 25 26 26 26 26 26 25 24 24 24 24 25 26 27 28 29 30
29 28 27 27 28 28 29 29 29 27 25 23 21 20 19 19 19 19 19 19 18 18 18 17 17 17 17 18 19 19 19 18 18 17 18 19 20 21 22 22 23 24 25 25 26 27 28 28 27 27 26 26 26 26 27 27 27 27 26 26 25 25 26 27 28 29 30 31 32
28 27 27 27 28 28 29 29 28 26 24 21 20 19 19 19 19 20 20 19 19 18 18 17 17 18 19 20 22 23 22 21 19 18 18 19 20 20 21 22 23 24 24 25 26 27 28 28 27 27 26 26 27 27 28 28 28 27 27 27 27 27 27 28 29 30 31 33 34
27 27 27 27 28 28 29 28 27 25 22 20 19 19 19 20 20 20 19 19 19 18 18 18 18 19 20 22 24 24 24 22 20 19 18 19 19 20 21 22 22 23 24 25 27 28 28 28 27 27 27 27 28 28 28 28 28 28 28 28 28 28 29 30 31 32 33 35 36
26 26 26 27 28 28 29 28 26 24 21 19 18 19 19 20 20 20 19 19 19 19 19 19 19 20 21 22 23 23 22 21 19 19 19 19 20 20 21 21 22 23 24 25 27 28 28 28 28 27 27 28 28 29 29 29 29 29 28 28 29 29 30 31 32 34 35 36 37
26 26 27 27 28 28 28 27 25 23 20 18 18 18 19 20 20 20 20 19 19 20 20 20 21 21 22 22 21 20 19 19 19 19 20 20 21 21 21 21 21 23 24 25 27 28 28 28 28 28 28 29 29 30 30 30 30 29 29 29 30 30 31 32 34 35 37 37 37
26 26 27 28 28 28 27 26 24 21 19 18 18 19 20 20 21 21 21 21 21 21 21 21 21 22 22 22 21 20 19 19 19 20 21 21 22 21 21 21 21 23 24 26 27 28 28 28 28 28 29 29 30 30 30 30 30 30 30 31 31 32 33 35 36 37 37 37 35
26 26 27 28 28 28 27 25 23 20 19 18 18 19 20 21 21 21 21 21 21 21 21 22 22 22 22 22 21 21 21 21 22 22 22 22 22 22 21 21 22 23 25 26 27 27 27 27 28 28 29 30 30 31 31 31 31 31 31 32 33 34 36 37 38 37 36 34 31
26 26 27 28 28 27 25 24 21 19 18 18 18 20 21 22 22 21 21 21 21 21 22 22 22 22 23 23 23 23 23 23 23 22 22 22 22 21 21 22 23 24 25 26 26 26 26 26 27 28 29 30 31 31 31 32 32 32 33 34 35 36 37 38 37 36 33 30 26
26 27 27 28 27 26 24 22 20 19 18 18 19 20 21 22 22 21 21 21 21 22 22 22 23 23 23 24 24 23 23 23 22 21 21 21 21 21 22 23 24 25 26 26 26 25 25 25 27 28 29 30 31 31 32 32 33 33 34 36 37 38 38 37 35 33 29 25 22
26 27 27 27 26 25 23 21 19 18 18 19 19 20 21 22 21 21 21 21 21 22 23 24 24 24 24 24 24 23 23 22 20 19 19 20 21 22 22 23 25 25 25 25 25 24 25 25 26 27 28 30 31 31 32 33 34 35 36 37 38 38 37 35 32 29 25 22 19
26 27 27 26 25 24 22 21 19 19 19 19 19 20 21 21 21 21 22 22 23 24 24 25 25 25 25 24 23 22 20 19 18 18 19 20 21 22 23 24 24 25 25 24 24 25 25 25 26 26 28 29 30 31 32 33 35 36 37 37 37 36 34 32 29 26 23 21 19
26 26 26 25 24 23 22 21 20 19 19 18 19 19 20 21 22 22 23 24 24 25 26 26 26 25 24 23 21 19 17 16 17 18 19 20 21 22 23 23 24 24 24 25 25 25 25 26 26 26 27 28 30 31 33 34 35 36 36 36 35 33 32 30 28 26 24 22 21
Wind_Direction
350 350 350 350 350 350 349 349 349 349 348 348 348 347 346 346 345 344 343 343 343 342 342 341 341 341 341 340 339 338 337 335 334 332 331 330 328 326 324 324 324 325 325 326 326 327 328 329 331 333 336 338 340 342 344 347 348 349 351 354 354 355 355 356 358 357 356 354 352
351 351 351 350 350 349 349 349 349 349 349 349 348 347 346 345 344 343 342 341 341 340 339 339 339 338 338 336 335 334 332 330 329 328 327 327 326 326 326 327 327 328 329 329 329 330 331 333 335 338 341 342 343 345 347 349 349 350 350 352 352 352 352 353 354 354 354 352 351
351 351 350 350 350 350 350 350 350 349 349 348 347 346 344 343 342 341 340 340 339 338 338 337 336 336 335 333 332 330 329 328 327 326 327 327 328 330 331 333 334 335 336 337 338 340 343 346 347 349 350 349 349 349 349 349 349 349 348 348 348 348 348 348 349 349 349 349 348
351 351 351 351 351 351 351 350 349 349 348 346 345 343 342 341 341 340 340 339 339 338 338 336 335 334 333 332 330 329 328 328 328 329 330 331 333 335 337 338 340 342 344 346 348 351 354 356 357 357 356 354 352 351 350 349 349 348 347 346 345 344 344 344 345 346 346 347 347
351 352 352 352 351 351 350 349 348 347 346 344 343 342 341 340 340 340 340 340 340 339 338 337 335 334 333 332 331 331 331 332 332 333 334 336 338 340 341 343 344 346 348 350 352 354 355 356 355 354 354 352 350 348 348 347 347 346 346 344 343 342 342 342 343 344 345 345 345
352 352 351 351 351 350 349 348 347 346 344 343 342 341 341 341 342 342 342 343 342 341 339 338 336 335 334 333 334 335 336 337 337 338 339 340 342 344 345 346 347 348 349 350 351 351 352 351 349 348 348 347 345 343 343 343 343 343 342 342 341 341 341 341 342 342 343 343 343
352 352 352 351 351 350 349 348 346 345 344 343 342 342 342 343 343 344 344 344 343 342 341 339 338 337 337 338 339 340 341 341 341 341 343 344 345 346 347 348 348 349 349 349 348 348 347 347 345 343 342 341 339 338 338 338 338 339 339 340 340 340 340 340 340 341 341 341 341
352 352 352 351 350 349 348 347 346 345 343 343 343 343 344 344 345 345 345 344 344 343 342 341 340 340 341 342 343 343 343 343 343 344 345 346 347 347 348 348 348 349 349 348 346 344 343 343 341 340 338 337 335 334 333 334 334 336 337 338 339 339 339 339 339 339 339 339 338
353 352 352 351 350 349 347 346 345 344 344 343 343 344 344 345 345 345 345 345 344 343 343 342 341 342 343 344 344 343 343 343 343 344 345 346 346 346 346 346 347 348 349 348 344 341 338 337 337 336 335 334 333 331 330 331 332 333 334 336 336 337 337 337 337 337 337 337 336
353 352 351 350 349 348 347 346 345 344 344 344 344 344 344 345 345 345 344 344 344 343 342 341 341 341 342 342 342 342 342 342 342 342 343 343 343 342 342 342 343 344 345 345 341 337 333 332 332 332 332 332 330 329 328 328 328 329 330 330 332 333 334 334 335 335 335 335 334
353 352 351 349 348 347 346 345 345 344 343 343 343 343 343 344 344 343 343 343 343 342 340 339 338 338 338 339 340 340 339 339 339 338 338 338 337 337 336 336 337 338 338 338 335 332 329 327 327 328 329 328 327 325 324 324 324 324 324 325 326 328 329 330 331 332 332 332 331
353 351 350 349 348 347 346 345 344 343 343 342 342 342 342 342 342 342 342 342 341 339 337 335 335 334 335 335 336 336 336 336 335 334 333 333 332 331 331 330 330 330 331 330 329 327 325 324 324 325 325 324 323 321 320 320 320 320 320 321 322 324 325 326 327 327 327 327 328
352 351 350 349 348 347 346 344 343 342 341 341 340 340 340 340 340 340 340 340 339 337 335 332 331 331 331 332 332 333 333 333 332 331 330 330 329 329 328 327 326 326 325 325 324 323 322 322 322 322 321 320 319 318 317 317 318 319 319 320 321 322 322 323 323 323 324 324 324
352 351 350 349 348 346 345 343 342 341 340 339 339 339 339 339 339 339 339 339 337 335 333 330 329 328 328 329 329 329 330 330 330 330 329 329 329 329 328 326 325 323 322 322 321 320 320 320 320 319 318 318 317 317 317 317 318 319 320 320 320 319 320 320 320 321 321 321 321
353 351 350 349 347 345 344 342 341 340 339 338 338 337 337 337 337 337 338 337 336 334 332 330 327 325 324 325 326 326 327 327 327 327 328 328 328 328 327 326 324 322 320 320 319 319 319 319 319 319 318 318 318 318 318 318 319 319 319 318 317 317 317 317 317 318 318 319 319
352 351 349 348 346 344 343 341 340 339 338 337 336 336 336 335 336 336 337 336 335 333 331 329 326 324 322 321 322 323 323 323 323 324 324 325 326 326 326 325 324 322 320 319 319 320 320 321 320 320 319 318 318 318 318 317 317 316 316 315 315 315 315 315 315 316 316 317 318
351 349 348 346 345 343 342 341 339 338 337 336 335 335 334 334 334 335 336 336 335 333 330 327 325 323 321 320 319 319 320 320 320 321 322 322 323 324 325 325 324 322 321 321 321 321 322 322 321 321 320 318 317 316 315 315 314 314 314 314 314 314 314 314 314 315 315 316 317
349 348 346 345 343 342 341 340 339 338 337 335 334 333 333 333 333 334 335 336 335 332 329 325 323 321 319 318 317 317 318 318 319 320 320 321 321 322 323 323 323 323 322 322 322 323 323 323 322 321 320 319 317 316 315 314 314 314 314 314 314 314 314 314 314 314 314 315 316
348 346 344 343 342 342 341 340 340 338 337 335 333 332 331 332 332 334 335 335 334 332 328 324 321 318 316 315 315 316 317 318 319 320 320 321 321 322 322 323 323 323 323 323 324 324 324 324 323 322 321 320 319 318 316 316 315 315 315 316 316 315 314 313 313 312 312 312 313
346 344 343 342 341 341 341 341 340 339 337 334 332 331 330 330 331 333 334 334 334 331 327 323 319 317 315 314 314 315 316 317 318 319 321 322 323 323 324 324 324 324 324 325 325 325 325 325 324 323 322 321 320 319 318 317 317 317 318 318 317 316 314 312 311 310 309 309 310
345 343 342 341 341 341 341 341 341 339 337 334 331 330 329 329 330 331 332 333 332 330 327 323 319 317 315 314 314 314 315 316 317 319 321 322 324 324 325 325 325 325 325 325 325 325 325 326 325 325 324 323 321 320 320 319 319 319 319 319 318 316 313 310 308 307 306 306 306
343 342 341 340 340 341 341 341 341 339 337 333 330 329 328 328 328 328 329 330 329 328 325 322 320 317 316 315 314 314 314 315 316 318 320 322 323 324 324 325 325 325 325 325 325 325 326 327 327 326 326 324 323 322 321 321 321 321 321 319 317 315 311 308 306 304 303 303 303
342 341 340 340 340 340 341 341 340 339 336 333 330 328 327 326 326 325 325 325 324 323 322 320 319 317 316 314 313 313 313 315 317 318 320 321 322 323 323 324 324 324 324 324 325 325 326 327 328 328 328 326 325 324 323 323 323 323 321 319 316 313 308 305 303 302 301 301 302
340 340 339 339 339 339 340 340 340 339 336 333 330 327 326 325 324 322 320 319 318 318 318 318 317 315 313 311 311 311 312 315 317 319 320 321 322 322 323 323 323 323 323 324 325 326 327 328 329 329 329 328 327 326 325 325 325 324 322 319 315 311 306 303 301 300 300 301 302
339 339 339 338 338 338 338 339 339 338 336 333 329 327 325 324 322 319 316 314 314 315 316 316 315 313 310 308 308 310 312 315 317 318 319 320 321 321 321 322 322 322 323 323 324 326 327 328 329 329 329 328 327 326 326 326 326 325 322 319 315 311 306 303 300 298 298 299 301
337 338 337 337 337 337 337 338 338 337 335 332 329 326 325 323 320 317 313 312 312 314 315 314 312 309 307 306 307 309 311 314 316 318 319 319 320 320 321 321 322 322 323 323 324 326 326 327 328 328 328 327 326 326 326 327 327 326 323 320 316 312 308 305 302 300 300 300 301
336 336 336 336 336 336 337 337 337 336 334 332 328 325 324 322 319 316 314 313 313 314 314 311 308 305 303 303 305 308 311 314 316 317 318 319 319 319 320 321 322 322 323 324 325 325 326 326 327 327 326 326 325 325 326 327 327 326 324 321 318 314 311 308 307 306 305 305 305
335 335 335 334 335 335 336 336 336 335 333 330 327 325 323 321 318 316 315 314 314 314 312 308 304 301 300 301 303 307 311 314 316 318 318 319 319 320 320 321 322 323 323 324 325 325 325 326 326 325 325 324 324 324 325 326 327 326 325 323 320 317 315 313 311 311 311 311 311
333 333 333 333 334 334 335 335 335 333 332 329 326 324 322 319 317 315 314 314 313 312 309 306 303 300 299 300 303 306 309 312 315 317 319 319 319 320 321 321 322 323 323 324 324 325 325 325 324 324 323 323 323 323 325 326 327 327 326 325 323 321 319 317 316 315 315 314 314
332 331 331 332 332 333 334 334 333 332 330 327 324 322 320 317 315 313 312 312 311 310 308 305 303 301 302 303 305 306 307 309 312 316 318 319 319 319 320 321 321 322 323 324 324 324 324 323 323 322 322 322 322 323 324 325 326 327 327 326 325 323 321 320 319 317 317 316 315
330 330 330 330 331 332 333 332 332 330 328 325 322 320 319 316 314 312 312 311 310 309 307 306 305 305 307 309 309 307 306 305 308 312 316 317 317 317 318 319 320 321 323 323 324 323 323 322 322 321 321 321 322 323 324 325 326 327 327 326 325 324 323 321 320 319 318 317 316
329 329 329 329 330 331 332 331 330 328 326 323 320 319 318 316 315 313 312 311 311 310 309 308 309 311 313 315 315 313 310 308 308 310 313 314 315 315 316 317 319 321 322 323 323 323 322 321 320 320 320 321 322 323 324 325 326 326 326 326 325 323 322 321 320 319 318 317 316
327 327 328 328 329 330 330 330 329 326 323 320 318 318 317 316 316 314 313 312 311 311 311 311 312 315 318 320 322 321 318 315 312 311 311 311 311 312 313 315 318 320 323 323 323 322 320 320 320 320 321 321 322 323 324 325 325 325 325 324 323 322 321 320 319 318 318 317 315
326 326 327 328 329 329 329 328 327 324 321 318 317 317 316 316 315 314 313 312 311 311 311 312 313 316 319 322 325 325 323 320 316 313 311 309 309 309 311 314 317 321 323 323 322 321 320 319 320 320 321 322 323 323 324 325 325 325 324 323 322 321 320 319 318 318 317 316 315
325 325 326 327 328 328 328 327 325 322 319 317 316 316 316 315 314 313 312 311 311 311 311 312 313 315 318 320 322 323 323 320 317 314 311 309 307 307 309 314 319 322 323 323 322 321 320 320 320 321 322 322 323 323 324 324 324 324 323 322 321 320 319 319 318 318 318 317 316
325 325 326 327 327 327 326 325 322 320 317 316 316 316 315 314 313 313 312 311 311 311 311 312 313 314 316 317 318 319 319 318 316 313 310 308 306 307 310 315 320 323 323 323 322 321 321 321 321 322 322 323 323 323 323 324 323 323 322 321 320 320 319 319 319 319 319 318 317
324 325 325 326 326 326 325 323 320 318 316 316 316 316 316 315 315 315 314 314 313 313 313 313 314 314 314 313 314 315 316 315 313 311 309 307 306 308 313 318 322 323 323 322 322 322 322 322 322 322 323 323 323 323 323 323 322 322 321 320 320 320 320 321 321 321 321 320 320
324 324 325 325 325 325 323 321 318 316 315 315 316 316 317 317 318 319 318 318 317 316 315 315 314 313 312 312 312 313 314 313 311 309 307 307 308 311 316 321 323 322 322 322 322 322 323 323 323 323 322 322 322 322 322 322 322 321 321 321 321 321 322 322 323 324 324 323 323
324 324 325 325 325 323 321 318 316 313 313 314 316 317 318 320 321 322 322 321 319 318 317 316 315 313 312 311 311 312 312 311 310 308 308 309 312 315 319 322 322 321 321 322 322 323 324 324 324 323 322 321 321 321 321 321 321 321 321 321 322 323 324 325 326 327 327 326 325
324 324 325 325 324 322 319 316 313 312 313 315 317 319 321 322 324 324 323 321 320 318 317 316 315 314 313 312 311 311 311 310 309 309 311 313 315 318 320 321 321 321 321 322 323 324 324 324 324 323 322 321 321 321 321 321 321 322 322 323 324 326 327 329 330 331 330 329 327
324 324 325 324 323 320 318 315 313 314 316 319 321 322 323 323 324 323 322 321 319 318 317 316 316 316 315 314 312 312 311 310 309 310 313 316 318 320 321 321 321 321 322 323 324 325 325 325 325 324 323 322 321 321 321 321 322 323 324 325 327 329 332 333 334 334 332 331 329
Height
1545 1545 1544 1543 1542 1541 1540 1539 1538 1537 1536 1535 1534 1533 1532 1531 1530 1529 1527 1526 1525 1524 1523 1522 1521 1520 1519 1518 1517 1516 1515 1514 1513 1512 1511 1511 1510 1509 1508 1507 1506 1505 1505 1504 1503 1502 1501 1500 1500 1499 1498 1497 1497 1496 1495 1494 1494 1493 1492 1492 1491 1490 1489 1488 1487 1486 1485 1484 1483
1545 1544 1543 1542 1541 1540 1539 1538 1537 1536 1535 1534 1533 1532 1531 1530 1529 1528 1527 1525 1525 1524 1523 1521 1520 1519 1518 1517 1516 1515 1514 1513 1512 1511 1510 1510 1509 1508 1507 1506 1505 1504 1503 1502 1501 1500 1500 1499 1498 1498 1497 1496 1495 1495 1494 1493 1493 1492 1491 1491 1490 1490 1489 1488 1487 1486 1485 1484 1483
1544 1543 1542 1541 1540 1539 1538 1537 1536 1535 1534 1533 1532 1531 1530 1529 1528 1527 1526 1525 1524 1523 1521 1520 1519 1518 1517 1516 1515 1514 1513 1512 1511 1510 1509 1508 1508 1507 1506 1505 1504 1503 1502 1501 1501 1500 1499 1498 1498 1497 1496 1495 1495 1494 1493 1493 1492 1491 1491 1490 1490 1490 1489 1488 1487 1486 1485 1484 1483
1543 1542 1541 1540 1539 1538 1537 1537 1536 1535 1534 1533 1532 1531 1530 1529 1528 1526 1525 1524 1523 1522 1520 1520 1518 1517 1516 1515 1514 1513 1512 1511 1510 1510 1509 1507 1507 1506 1505 1504 1503 1502 1502 1501 1500 1500 1499 1498 1498 1497 1496 1495 1495 1494 1493 1492 1491 1491 1490 1490 1490 1489 1488 1487 1486 1485 1484 1483 1482
1542 1542 1541 1540 1539 1538 1537 1536 1535 1534 1533 1532 1531 1530 1529 1528 1527 1525 1524 1523 1522 1520 1519 1518 1517 1516 1515 1514 1513 1512 1511 1510 1510 1509 1508 1507 1506 1505 1504 1504 1503 1502 1501 1500 1500 1499 1499 1498 1497 1497 1496 1496 1495 1494 1493 1492 1491 1491 1490 1490 1489 1488 1487 1486 1485 1485 1484 1483 1482
1542 1541 1540 1540 1539 1538 1537 1535 1535 1534 1533 1531 1530 1529 1528 1527 1525 1524 1523 1522 1520 1519 1518 1517 1516 1515 1514 1514 1513 1512 1511 1510 1509 1508 1507 1506 1505 1505 1504 1503 1502 1501 1501 1500 1500 1499 1498 1498 1497 1497 1496 1495 1495 1494 1493 1492 1491 1490 1490 1489 1488 1487 1486 1485 1485 1484 1483 1482 1481
1542 1541 1540 1539 1538 1537 1536 1535 1534 1533 1532 1530 1529 1528 1527 1525 1524 1523 1522 1521 1520 1518 1517 1516 1515 1515 1514 1513 1512 1511 1510 1510 1509 1508 1507 1506 1505 1504 1503 1503 1502 1501 1500 1500 1499 1498 1498 1497 1497 1496 1495 1495 1494 1493 1492 1492 1491 1490 1489 1488 1487 1486 1486 1485 1484 1483 1482 1481 1480
1541 1540 1540 1539 1537 1536 1535 1535 1533 1532 1531 1530 1528 1527 1526 1525 1523 1522 1521 1520 1519 1518 1517 1516 1515 1514 1513 1512 1512 1511 1510 1509 1508 1507 1506 1505 1505 1504 1503 1502 1501 1501 1500 1499 1499 1498 1497 1497 1496 1495 1495 1494 1493 1492 1492 1491 1490 1489 1488 1488 1487 1486 1485 1484 1483 1482 1481 1480 1480
1541 1540 1539 1538 1537 1536 1535 1534 1533 1531 1530 1529 1527 1526 1525 1524 1522 1521 1520 1519 1518 1517 1516 1515 1514 1514 1513 1512 1511 1510 1509 1509 1508 1507 1506 1505 1504 1503 1503 1502 1501 1500 1500 1499 1498 1498 1497 1496 1495 1495 1494 1493 1493 1492 1491 1490 1489 1489 1488 1487 1486 1485 1484 1483 1482 1481 1480 1480 1479
1540 1539 1538 1537 1536 1535 1534 1533 1532 1530 1529 1528 1526 1525 1524 1523 1522 1520 1520 1518 1517 1516 1515 1515 1514 1513 1512 1511 1510 1510 1509 1508 1507 1506 1505 1505 1504 1503 1502 1501 1501 1500 1499 1499 1498 1497 1496 1496 1495 1494 1494 1493 1492 1491 1490 1490 1489 1488 1487 1486 1485 1485 1484 1483 1482 1480 1480 1479 1478
1540 1539 1538 1537 1536 1535 1533 1532 1531 1530 1528 1527 1526 1525 1523 1522 1521 1520 1519 1518 1517 1516 1515 1514 1513 1512 1511 1510 1510 1509 1508 1507 1506 1505 1505 1504 1503 1503 1502 1501 1500 1500 1499 1498 1497 1497 1496 1495 1495 1494 1493 1492 1491 1490 1490 1489 1488 1487 1486 1485 1485 1484 1483 1482 1481 1480 1479 1478 1477
1539 1538 1537 1536 1535 1534 1532 1531 1530 1529 1527 1526 1525 1524 1523 1521 1520 1519 1518 1517 1516 1515 1515 1514 1513 1512 1511 1510 1509 1508 1507 1506 1506 1505 1505 1504 1503 1502 1501 1501 1500 1499 1498 1498 1497 1496 1495 1495 1494 1493 1492 1492 1491 1490 1489 1488 1487 1486 1486 1485 1484 1483 1482 1481 1480 1479 1478 1477 1476
1538 1537 1536 1535 1534 1533 1531 1530 1529 1528 1526 1525 1524 1523 1522 1521 1520 1519 1518 1517 1516 1515 1514 1513 1512 1511 1510 1509 1508 1508 1507 1506 1505 1505 1504 1503 1502 1502 1501 1500 1499 1499 1498 1497 1496 1495 1495 1494 1493 1492 1492 1491 1490 1490 1489 1488 1487 1486 1485 1484 1483 1482 1481 1480 1480 1478 1477 1476 1475
1537 1536 1535 1534 1533 1532 1530 1529 1528 1527 1526 1525 1524 1522 1521 1520 1519 1518 1517 1516 1515 1514 1513 1512 1511 1511 1510 1509 1508 1507 1506 1505 1505 1504 1503 1503 1502 1501 1500 1499 1499 1498 1497 1496 1495 1495 1494 1493 1492 1491 1491 1490 1490 1489 1488 1487 1486 1485 1484 1483 1482 1481 1480 1479 1478 1477 1476 1475 1474
1536 1535 1534 1533 1532 1531 1530 1528 1527 1526 1525 1524 1523 1522 1521 1520 1518 1517 1516 1515 1515 1514 1513 1512 1511 1510 1509 1508 1507 1506 1506 1505 1504 1504 1503 1502 1501 1500 1500 1499 1498 1497 1496 1495 1494 1494 1493 1492 1491 1490 1490 1489 1489 1488 1487 1486 1485 1484 1483 1482 1481 1480 1479 1478 1477 1476 1475 1474 1473
1535 1534 1533 1532 1531 1530 1529 1528 1526 1525 1524 1523 1522 1521 1520 1519 1518 1517 1516 1515 1514 1513 1512 1511 1510 1510 1509 1508 1507 1506 1505 1505 1504 1503 1502 1501 1500 1500 1499 1498 1497 1496 1495 1494 1493 1493 1492 1491 1490 1490 1489 1488 1487 1487 1486 1485 1484 1483 1482 1481 1480 1479 1478 1476 1475 1475 1474 1472 1471
1535 1534 1532 1531 1530 1529 1528 1527 1526 1525 1523 1522 1521 1520 1519 1518 1517 1516 1515 1514 1513 1512 1511 1510 1510 1509 1508 1507 1506 1505 1505 1504 1503 1502 1501 1500 1500 1499 1498 1497 1496 1495 1494 1493 1493 1492 1491 1490 1490 1489 1488 1487 1486 1485 1485 1484 1483 1481 1480 1480 1478 1477 1476 1475 1474 1473 1472 1471 1470
1534 1533 1531 1530 1529 1528 1527 1526 1525 1524 1522 1521 1520 1519 1518 1517 1516 1515 1514 1513 1512 1511 1510 1510 1509 1508 1507 1506 1505 1505 1504 1503 1502 1501 1500 1500 1499 1498 1497 1496 1495 1495 1494 1493 1492 1491 1490 1489 1489 1488 1487 1486 1485 1484 1483 1482 1481 1480 1479 1478 1477 1476 1475 1474 1473 1472 1471 1470 1469
1533 1532 1530 1530 1529 1527 1526 1525 1524 1522 1521 1520 1519 1518 1517 1516 1515 1514 1513 1512 1511 1511 1510 1509 1508 1507 1506 1506 1505 1504 1503 1503 1501 1500 1500 1499 1498 1497 1496 1495 1494 1494 1493 1492 1491 1490 1489 1488 1487 1487 1486 1485 1484 1483 1482 1480 1480 1479 1477 1476 1475 1475 1474 1473 1472 1470 1470 1468 1467
1532 1531 1530 1529 1528 1526 1525 1524 1523 1521 1520 1519 1518 1517 1516 1515 1515 1514 1513 1512 1511 1510 1509 1508 1507 1506 1506 1505 1504 1503 1502 1502 1501 1500 1499 1498 1497 1496 1495 1494 1493 1492 1491 1491 1490 1489 1488 1487 1486 1485 1484 1483 1482 1481 1480 1479 1478 1477 1476 1475 1474 1473 1472 1471 1470 1469 1468 1467 1466
1531 1530 1529 1528 1526 1525 1524 1523 1522 1520 1519 1518 1517 1516 1515 1515 1514 1513 1512 1511 1510 1509 1508 1507 1506 1506 1505 1504 1503 1502 1501 1500 1500 1499 1498 1497 1496 1495 1494 1493 1492 1491 1490 1490 1489 1488 1487 1486 1485 1484 1483 1482 1481 1480 1479 1477 1476 1475 1475 1474 1473 1472 1471 1470 1469 1468 1467 1465 1464
1530 1529 1528 1527 1525 1524 1523 1522 1521 1520 1519 1517 1516 1515 1515 1514 1513 1512 1511 1510 1509 1508 1508 1507 1506 1505 1504 1503 1502 1501 1500 1500 1499 1498 1497 1496 1495 1494 1493 1492 1491 1490 1490 1489 1488 1487 1486 1485 1484 1483 1482 1480 1479 1478 1477 1476 1475 1474 1473 1472 1471 1470 1470 1469 1467 1466 1465 1464 1463
1529 1528 1527 1526 1525 1523 1522 1521 1520 1519 1518 1516 1515 1514 1513 1512 1511 1510 1510 1509 1508 1507 1507 1506 1505 1504 1503 1502 1501 1500 1499 1498 1498 1497 1496 1495 1494 1493 1492 1491 1490 1489 1488 1487 1486 1485 1485 1484 1482 1481 1480 1479 1478 1477 1476 1475 1473 1472 1471 1470 1470 1469 1468 1467 1466 1465 1463 1462 1461
1528 1527 1526 1525 1523 1522 1521 1520 1519 1518 1516 1515 1514 1513 1512 1511 1510 1510 1509 1508 1507 1506 1506 1505 1504 1503 1502 1501 1500 1499 1498 1497 1496 1495 1495 1494 1493 1492 1491 1490 1489 1488 1487 1486 1485 1484 1483 1482 1481 1480 1479 1478 1476 1475 1474 1473 1472 1471 1470 1469 1468 1467 1466 1465 1464 1463 1462 1460 1459
1527 1526 1525 1524 1522 1521 1520 1519 1518 1516 1515 1514 1513 1512 1511 1510 1509 1509 1508 1507 1506 1505 1505 1504 1503 1502 1501 1500 1499 1498 1497 1496 1495 1495 1494 1493 1492 1491 1490 1489 1488 1487 1486 1485 1484 1483 1482 1481 1480 1478 1477 1476 1475 1474 1473 1472 1470 1469 1468 1467 1466 1465 1464 1463 1462 1461 1460 1459 1458
1526 1525 1524 1522 1521 1520 1519 1518 1516 1515 1514 1513 1512 1511 1510 1509 1508 1507 1506 1506 1505 1504 1503 1502 1501 1501 1500 1499 1498 1497 1496 1495 1494 1493 1492 1491 1490 1490 1489 1488 1487 1486 1485 1484 1483 1482 1481 1480 1478 1477 1476 1475 1473 1472 1471 1470 1469 1468 1466 1465 1464 1463 1462 1460 1460 1458 1458 1457 1455
1525 1524 1522 1521 1520 1519 1518 1516 1515 1514 1513 1511 1510 1510 1509 1508 1507 1506 1505 1505 1504 1503 1502 1501 1500 1500 1499 1498 1497 1496 1495 1494 1493 1492 1491 1490 1490 1489 1488 1487 1486 1485 1484 1483 1481 1480 1479 1478 1477 1476 1475 1473 1472 1471 1470 1468 1467 1466 1465 1464 1462 1461 1460 1459 1457 1456 1455 1454 1453
1523 1522 1521 1520 1519 1518 1516 1515 1514 1512 1511 1510 1509 1508 1507 1506 1505 1505 1504 1503 1502 1501 1501 1500 1499 1499 1498 1497 1496 1495 1494 1493 1492 1491 1490 1489 1488 1487 1486 1485 1485 1483 1482 1481 1480 1479 1478 1477 1476 1475 1473 1472 1471 1470 1468 1467 1465 1464 1463 1462 1461 1460 1458 1457 1455 1454 1453 1452 1450
1522 1521 1520 1519 1518 1516 1515 1514 1512 1511 1510 1509 1508 1507 1506 1505 1505 1504 1503 1502 1501 1500 1500 1499 1498 1497 1497 1496 1495 1494 1493 1492 1491 1490 1489 1488 1487 1486 1485 1484 1483 1482 1481 1480 1479 1477 1476 1475 1474 1473 1472 1471 1470 1468 1467 1465 1464 1463 1461 1460 1459 1458 1456 1455 1454 1452 1451 1450 1448
1521 1520 1519 1517 1516 1515 1514 1512 1511 1510 1509 1508 1507 1506 1505 1504 1503 1503 1502 1501 1500 1499 1499 1498 1497 1496 1495 1495 1494 1493 1492 1491 1490 1489 1488 1487 1486 1485 1484 1483 1482 1481 1480 1478 1477 1476 1475 1474 1473 1471 1470 1469 1468 1467 1465 1464 1463 1461 1460 1459 1457 1456 1455 1453 1452 1450 1449 1447 1445
1520 1518 1517 1516 1515 1514 1512 1511 1510 1509 1507 1506 1505 1505 1504 1503 1502 1501 1501 1500 1499 1498 1498 1497 1496 1495 1495 1494 1493 1492 1490 1490 1489 1488 1486 1485 1485 1484 1483 1482 1481 1480 1478 1477 1476 1475 1473 1472 1471 1470 1469 1468 1466 1465 1464 1462 1461 1460 1458 1457 1455 1454 1453 1451 1450 1448 1447 1445 1443
1518 1517 1516 1515 1514 1512 1511 1510 1508 1507 1506 1505 1504 1504 1503 1502 1501 1500 1500 1499 1498 1497 1496 1496 1495 1494 1493 1492 1491 1490 1489 1488 1487 1486 1485 1484 1483 1482 1481 1480 1480 1478 1477 1476 1474 1473 1472 1470 1470 1468 1467 1466 1465 1463 1462 1460 1459 1458 1456 1455 1454 1452 1451 1449 1448 1446 1444 1443 1441
1517 1516 1515 1513 1512 1511 1510 1508 1507 1506 1505 1504 1503 1502 1502 1501 1500 1500 1499 1498 1497 1496 1495 1495 1494 1493 1492 1491 1490 1489 1488 1487 1486 1485 1484 1483 1482 1481 1480 1479 1478 1477 1476 1475 1473 1472 1470 1469 1468 1467 1465 1464 1463 1461 1460 1459 1457 1456 1455 1453 1452 1450 1449 1447 1445 1444 1442 1440 1438
1516 1515 1513 1512 1511 1510 1508 1507 1506 1505 1504 1503 1502 1501 1501 1500 1499 1498 1498 1497 1496 1495 1494 1493 1493 1491 1490 1490 1489 1487 1486 1486 1485 1484 1483 1482 1481 1480 1479 1478 1477 1475 1475 1473 1472 1470 1469 1468 1466 1465 1464 1462 1461 1460 1458 1457 1455 1454 1453 1451 1450 1448 1447 1445 1444 1442 1440 1438 1436
1514 1513 1512 1510 1509 1508 1507 1505 1505 1504 1503 1502 1501 1500 1500 1499 1498 1497 1496 1495 1495 1494 1493 1492 1491 1490 1490 1488 1487 1486 1485 1484 1484 1483 1482 1480 1480 1479 1477 1476 1475 1475 1473 1472 1471 1469 1468 1466 1465 1463 1462 1460 1459 1458 1456 1455 1454 1452 1450 1449 1448 1446 1445 1443 1441 1440 1438 1435 1433
1513 1511 1510 1509 1508 1507 1505 1504 1503 1502 1501 1501 1500 1499 1499 1498 1497 1496 1495 1494 1493 1492 1492 1491 1490 1489 1488 1487 1486 1485 1484 1483 1482 1481 1480 1479 1478 1477 1476 1475 1474 1473 1472 1471 1470 1468 1466 1465 1463 1462 1460 1459 1457 1456 1454 1453 1451 1450 1449 1447 1445 1444 1442 1440 1439 1437 1435 1433 1431
1511 1510 1509 1508 1506 1505 1504 1503 1502 1501 1500 1500 1499 1498 1497 1496 1495 1495 1494 1493 1492 1491 1490 1490 1489 1488 1487 1486 1485 1484 1483 1482 1481 1480 1479 1478 1477 1476 1475 1474 1473 1472 1471 1470 1468 1467 1465 1463 1462 1460 1459 1457 1455 1454 1452 1451 1450 1448 1446 1445 1443 1441 1440 1438 1436 1435 1433 1431 1429
1510 1509 1507 1506 1505 1504 1503 1502 1501 1500 1499 1498 1498 1497 1496 1495 1494 1494 1493 1492 1491 1490 1489 1488 1487 1486 1485 1485 1483 1482 1481 1480 1479 1478 1477 1476 1475 1475 1474 1473 1472 1471 1470 1469 1467 1466 1464 1463 1461 1459 1457 1455 1454 1452 1451 1449 1447 1446 1444 1442 1441 1439 1437 1436 1434 1432 1430 1429 1428
1508 1507 1506 1505 1504 1502 1501 1500 1500 1499 1498 1497 1496 1496 1495 1494 1493 1492 1492 1491 1490 1489 1488 1487 1486 1485 1484 1483 1482 1481 1480 1479 1478 1477 1476 1475 1474 1473 1472 1472 1471 1470 1469 1467 1466 1465 1463 1462 1460 1458 1456 1454 1452 1450 1449 1447 1445 1444 1442 1440 1438 1436 1435 1433 1432 1430 1429 1427 1426
1507 1506 1505 1503 1502 1501 1500 1499 1499 1498 1497 1496 1495 1495 1494 1493 1492 1491 1490 1490 1489 1488 1486 1485 1484 1483 1482 1481 1480 1480 1479 1478 1477 1476 1475 1474 1473 1472 1471 1470 1470 1468 1467 1466 1465 1463 1462 1460 1459 1457 1455 1453 1451 1449 1447 1445 1444 1442 1440 1438 1436 1434 1432 1430 1430 1428 1427 1426 1425
1505 1504 1503 1502 1501 1500 1499 1498 1497 1497 1496 1495 1495 1494 1493 1492 1491 1490 1489 1488 1487 1486 1485 1484 1483 1482 1481 1480 1479 1478 1477 1477 1476 1475 1474 1473 1472 1471 1470 1469 1468 1467 1466 1465 1464 1462 1461 1459 1458 1456 1454 1452 1450 1448 1446 1444 1442 1440 1438 1436 1434 1432 1430 1428 1427 1426 1425 1424 1423